CFG4MF EDDF-LPMA

Flight info

Callsign CFG4MF
Flight time 3h 48m
Altitude 33000
Route SOBRA1F SOBRA Y180 DIK UN857 TOLVU DCT RAPOR DCT GIMER DCT ESTOC/N0450F350 UT300 PON UN872 GODIX/N0446F310 UN872 DIDAK/N0450F350 UN872 ERIGA UN741 AZFIC DCT LOTEE DCT AGADO DCT LIDRO
Aircraft A320/M-SDE3FGHIJ1LORVWXYZ/LB1

Departure

Time 2026-05-07 05:17
Airport Frankfurt Main Airport (EDDF)

Arrival

Time 2026-05-07 09:05
Airport Cristiano Ronaldo International Airport (LPMA)
Time Latitude Longitude Altitude Speed Heading
2026-05-07 04:33 50.04726 8.58100 363 ft 0 kts 160°
2026-05-07 05:04 50.04727 8.58099 361 ft 2 kts 160°
2026-05-07 05:04 50.04751 8.58085 362 ft 4 kts 160°
2026-05-07 05:05 50.04771 8.58074 363 ft 4 kts 166°
2026-05-07 05:05 50.04796 8.58071 363 ft 4 kts 204°
2026-05-07 05:05 50.04813 8.58096 359 ft 3 kts 250°
2026-05-07 05:05 50.04817 8.58114 364 ft 1 kts 250°
2026-05-07 05:09 50.04817 8.58112 358 ft 1 kts 250°
2026-05-07 05:09 50.04812 8.58093 360 ft 3 kts 250°
2026-05-07 05:10 50.04803 8.58052 357 ft 5 kts 250°
2026-05-07 05:10 50.04785 8.58001 357 ft 6 kts 231°
2026-05-07 05:10 50.04746 8.57959 360 ft 7 kts 198°
2026-05-07 05:10 50.04697 8.57969 359 ft 7 kts 162°
2026-05-07 05:11 50.04657 8.57991 364 ft 5 kts 160°
2026-05-07 05:11 50.04633 8.58005 359 ft 4 kts 160°
2026-05-07 05:11 50.04612 8.58016 362 ft 3 kts 160°
2026-05-07 05:11 50.04567 8.58091 365 ft 17 kts 99°
2026-05-07 05:12 50.04602 8.58265 369 ft 14 kts 71°
2026-05-07 05:12 50.04632 8.58389 372 ft 11 kts 69°
2026-05-07 05:12 50.04655 8.58492 370 ft 9 kts 80°
2026-05-07 05:12 50.04631 8.58565 370 ft 7 kts 142°
2026-05-07 05:13 50.04600 8.58585 369 ft 0 kts 160°
2026-05-07 05:15 50.04595 8.58588 372 ft 4 kts 160°
2026-05-07 05:15 50.04537 8.58617 370 ft 13 kts 172°
2026-05-07 05:16 50.04461 8.58481 370 ft 29 kts 251°
2026-05-07 05:16 50.04310 8.57848 366 ft 95 kts 249°
2026-05-07 05:16 50.04013 8.56603 360 ft 147 kts 249°
2026-05-07 05:16 50.03593 8.54979 679 ft 159 kts 249°
2026-05-07 05:17 50.03201 8.53419 1379 ft 157 kts 252°
2026-05-07 05:17 50.02809 8.51773 1848 ft 171 kts 250°
2026-05-07 05:17 50.01974 8.50289 2116 ft 199 kts 212°
2026-05-07 05:17 50.00601 8.49461 2363 ft 222 kts 201°
2026-05-07 05:18 49.99091 8.48654 2824 ft 232 kts 201°
2026-05-07 05:18 49.97561 8.47828 3503 ft 233 kts 202°
2026-05-07 05:18 49.96037 8.47004 4155 ft 235 kts 201°
2026-05-07 05:18 49.94487 8.46160 4811 ft 238 kts 201°
2026-05-07 05:19 49.92992 8.45046 5436 ft 238 kts 218°
2026-05-07 05:19 49.91716 8.43277 5790 ft 256 kts 226°
2026-05-07 05:19 49.90405 8.41317 6283 ft 268 kts 226°
2026-05-07 05:19 49.89050 8.39289 6964 ft 272 kts 226°
2026-05-07 05:20 49.87677 8.37239 7720 ft 274 kts 227°
2026-05-07 05:20 49.86290 8.35170 8436 ft 278 kts 227°
2026-05-07 05:20 49.84888 8.33078 9155 ft 281 kts 227°
2026-05-07 05:20 49.83468 8.30956 9861 ft 285 kts 227°
2026-05-07 05:21 49.82051 8.28736 10260 ft 298 kts 233°
2026-05-07 05:21 49.80094 8.22728 10579 ft 333 kts 259°
2026-05-07 05:21 49.79833 8.19130 11065 ft 338 kts 272°
2026-05-07 05:22 49.80119 8.15509 11633 ft 342 kts 284°
2026-05-07 05:22 49.80679 8.11909 12199 ft 347 kts 284°
2026-05-07 05:22 49.81255 8.08243 12790 ft 351 kts 284°
2026-05-07 05:22 49.81840 8.04548 13377 ft 356 kts 284°
2026-05-07 05:23 49.82434 8.00810 13944 ft 360 kts 284°
2026-05-07 05:23 49.83035 7.97022 14482 ft 363 kts 284°
2026-05-07 05:23 49.83636 7.93223 15045 ft 365 kts 284°
2026-05-07 05:23 49.84239 7.89392 15608 ft 367 kts 284°
2026-05-07 05:24 49.84842 7.85528 16128 ft 370 kts 284°
2026-05-07 05:24 49.85440 7.81673 16680 ft 373 kts 284°
2026-05-07 05:24 49.86049 7.77751 17208 ft 376 kts 284°
2026-05-07 05:24 49.86668 7.73789 17743 ft 379 kts 284°
2026-05-07 05:25 49.87296 7.69818 18296 ft 380 kts 284°
2026-05-07 05:25 49.87929 7.65798 18782 ft 383 kts 284°
2026-05-07 05:25 49.88557 7.61768 19259 ft 385 kts 284°
2026-05-07 05:25 49.89174 7.57763 19727 ft 387 kts 283°
2026-05-07 05:26 49.89800 7.53683 20206 ft 389 kts 283°
2026-05-07 05:26 49.90427 7.49586 20677 ft 391 kts 283°
2026-05-07 05:26 49.91058 7.45456 21134 ft 394 kts 283°
2026-05-07 05:26 49.91693 7.41301 21576 ft 396 kts 283°
2026-05-07 05:27 49.92327 7.37125 22029 ft 398 kts 283°
2026-05-07 05:27 49.92958 7.32972 22449 ft 400 kts 283°
2026-05-07 05:27 49.93599 7.28752 22864 ft 402 kts 283°
2026-05-07 05:27 49.94244 7.24515 23289 ft 403 kts 283°
2026-05-07 05:28 49.94888 7.20260 23676 ft 405 kts 283°
2026-05-07 05:28 49.95532 7.15988 23999 ft 407 kts 283°
2026-05-07 05:28 49.96176 7.11681 24310 ft 409 kts 283°
2026-05-07 05:28 49.96819 7.07367 24611 ft 412 kts 283°
2026-05-07 05:29 49.97459 7.03064 24902 ft 414 kts 283°
2026-05-07 05:29 49.98106 6.98696 25190 ft 416 kts 283°
2026-05-07 05:29 49.98759 6.94289 25477 ft 418 kts 283°
2026-05-07 05:29 49.99103 6.91327 25626 ft 421 kts 277°
2026-05-07 05:30 49.99229 6.86772 25880 ft 423 kts 268°
2026-05-07 05:30 49.99041 6.80690 26278 ft 425 kts 267°
2026-05-07 05:30 49.98947 6.77583 26477 ft 426 kts 267°
2026-05-07 05:30 49.98811 6.73030 26745 ft 428 kts 267°
2026-05-07 05:31 49.98672 6.68394 26997 ft 430 kts 267°
2026-05-07 05:31 49.98531 6.63728 27259 ft 432 kts 267°
2026-05-07 05:31 49.98318 6.59062 27508 ft 434 kts 262°
2026-05-07 05:31 49.97684 6.54471 27740 ft 436 kts 253°
2026-05-07 05:32 49.96620 6.50120 27971 ft 438 kts 247°
2026-05-07 05:32 49.95395 6.45765 28202 ft 440 kts 247°
2026-05-07 05:32 49.94169 6.41392 28420 ft 441 kts 247°
2026-05-07 05:32 49.92942 6.37017 28659 ft 443 kts 247°
2026-05-07 05:33 49.91703 6.32611 28815 ft 446 kts 247°
2026-05-07 05:33 49.90469 6.28233 28986 ft 448 kts 247°
2026-05-07 05:33 49.89193 6.23792 29183 ft 450 kts 246°
2026-05-07 05:33 49.87906 6.19343 29374 ft 452 kts 247°
2026-05-07 05:34 49.86622 6.14896 29573 ft 453 kts 244°
2026-05-07 05:34 49.85046 6.10653 29853 ft 453 kts 236°
2026-05-07 05:34 49.83250 6.06699 30091 ft 453 kts 235°
2026-05-07 05:34 49.81429 6.02720 30313 ft 453 kts 236°
2026-05-07 05:35 49.79604 5.98747 30573 ft 451 kts 235°
2026-05-07 05:35 49.77782 5.94794 30826 ft 450 kts 235°
2026-05-07 05:35 49.75983 5.90900 31043 ft 449 kts 235°
2026-05-07 05:35 49.74333 5.86797 31245 ft 448 kts 244°
2026-05-07 05:36 49.73092 5.82359 31386 ft 449 kts 251°
2026-05-07 05:36 49.72046 5.77798 31557 ft 450 kts 251°
2026-05-07 05:36 49.70991 5.73223 31765 ft 450 kts 251°
2026-05-07 05:36 49.69946 5.68725 31976 ft 450 kts 251°
2026-05-07 05:37 49.68883 5.64180 32191 ft 449 kts 251°
2026-05-07 05:37 49.67813 5.59618 32412 ft 449 kts 251°
2026-05-07 05:37 49.66743 5.55081 32614 ft 449 kts 251°
2026-05-07 05:37 49.65673 5.50544 32843 ft 448 kts 251°
2026-05-07 05:38 49.64622 5.46075 32981 ft 449 kts 251°
2026-05-07 05:38 49.62463 5.36944 33003 ft 456 kts 251°
2026-05-07 05:39 49.60398 5.27663 33004 ft 458 kts 253°
2026-05-07 05:39 49.58478 5.18287 33008 ft 458 kts 255°
2026-05-07 05:40 49.56821 5.08851 33004 ft 458 kts 256°
2026-05-07 05:40 49.55235 4.99334 33012 ft 458 kts 256°
2026-05-07 05:41 49.53578 4.89867 33013 ft 458 kts 256°
2026-05-07 05:41 49.51881 4.80453 33017 ft 457 kts 255°
2026-05-07 05:42 49.50162 4.71021 33006 ft 457 kts 255°
2026-05-07 05:42 49.48453 4.61645 33008 ft 457 kts 255°
2026-05-07 05:43 49.46730 4.52227 33007 ft 457 kts 255°
2026-05-07 05:43 49.45005 4.42783 33009 ft 457 kts 255°
2026-05-07 05:44 49.43280 4.33421 33003 ft 457 kts 255°
2026-05-07 05:44 49.41538 4.24032 33008 ft 457 kts 255°
2026-05-07 05:45 49.39787 4.14629 33006 ft 457 kts 255°
2026-05-07 05:45 49.38038 4.05300 33015 ft 457 kts 255°
2026-05-07 05:46 49.36276 3.95907 33014 ft 457 kts 256°
2026-05-07 05:46 49.34824 3.86411 33014 ft 456 kts 259°
2026-05-07 05:47 49.33580 3.76928 33011 ft 456 kts 259°
2026-05-07 05:47 49.32276 3.67368 33012 ft 456 kts 259°
2026-05-07 05:48 49.30901 3.57912 33011 ft 456 kts 258°
2026-05-07 05:48 49.29491 3.48408 33014 ft 456 kts 258°
2026-05-07 05:49 49.28095 3.38932 33016 ft 456 kts 258°
2026-05-07 05:49 49.26694 3.29453 33024 ft 456 kts 258°
2026-05-07 05:50 49.25291 3.20022 33024 ft 456 kts 258°
2026-05-07 05:50 49.23871 3.10519 33032 ft 456 kts 258°
2026-05-07 05:51 49.22454 3.01045 33034 ft 456 kts 258°
2026-05-07 05:51 49.21029 2.91642 33038 ft 455 kts 258°
2026-05-07 05:52 49.19586 2.82201 33037 ft 455 kts 258°
2026-05-07 05:52 49.18148 2.72825 33052 ft 455 kts 258°
2026-05-07 05:53 49.16693 2.63404 33053 ft 455 kts 257°
2026-05-07 05:53 49.15237 2.54008 33065 ft 453 kts 257°
2026-05-07 05:54 49.13782 2.44689 33067 ft 452 kts 257°
2026-05-07 05:54 49.12568 2.35265 33236 ft 451 kts 263°
2026-05-07 05:54 49.12134 2.30512 33372 ft 450 kts 263°
2026-05-07 05:55 49.11696 2.25764 33510 ft 450 kts 263°
2026-05-07 05:55 49.11256 2.21043 33651 ft 449 kts 263°
2026-05-07 05:55 49.10817 2.16372 33776 ft 449 kts 262°
2026-05-07 05:55 49.10369 2.11649 33932 ft 448 kts 262°
2026-05-07 05:56 49.09913 2.06946 34061 ft 448 kts 260°
2026-05-07 05:56 49.09138 2.02340 34182 ft 448 kts 251°
2026-05-07 05:56 49.07926 1.97962 34301 ft 448 kts 246°
2026-05-07 05:56 49.06633 1.93689 34419 ft 448 kts 246°
2026-05-07 05:57 49.05333 1.89371 34530 ft 448 kts 246°
2026-05-07 05:57 49.02726 1.80721 34742 ft 447 kts 246°
2026-05-07 05:57 49.01442 1.76467 34864 ft 447 kts 246°
2026-05-07 05:58 49.00125 1.72112 35006 ft 446 kts 246°
2026-05-07 05:58 48.97528 1.63570 35039 ft 448 kts 246°
2026-05-07 05:59 48.94893 1.54943 35043 ft 448 kts 246°
2026-05-07 05:59 48.92285 1.46401 35048 ft 448 kts 246°
2026-05-07 06:00 48.89659 1.37804 35047 ft 448 kts 246°
2026-05-07 06:00 48.87013 1.29218 35049 ft 448 kts 246°
2026-05-07 06:01 48.84362 1.20660 35060 ft 447 kts 245°
2026-05-07 06:01 48.81727 1.12160 35054 ft 447 kts 245°
2026-05-07 06:02 48.79068 1.03631 35057 ft 447 kts 245°
2026-05-07 06:02 48.76419 0.95143 35048 ft 447 kts 245°
2026-05-07 06:03 48.73608 0.86754 35057 ft 447 kts 239°
2026-05-07 06:03 48.70346 0.78696 35054 ft 447 kts 239°
2026-05-07 06:04 48.67109 0.70721 35061 ft 447 kts 239°
2026-05-07 06:04 48.63847 0.62697 35046 ft 446 kts 239°
2026-05-07 06:05 48.60587 0.54695 35049 ft 447 kts 239°
2026-05-07 06:05 48.57338 0.46746 35056 ft 447 kts 239°
2026-05-07 06:06 48.54056 0.38746 35064 ft 447 kts 239°
2026-05-07 06:06 48.50779 0.30785 35056 ft 446 kts 239°
2026-05-07 06:07 48.47546 0.22972 35055 ft 437 kts 239°
2026-05-07 06:07 48.44333 0.15205 35050 ft 435 kts 239°
2026-05-07 06:08 48.41133 0.07477 35056 ft 435 kts 239°
2026-05-07 06:08 48.37938 -0.00208 35048 ft 435 kts 239°
2026-05-07 06:09 48.34640 -0.07832 35049 ft 434 kts 236°
2026-05-07 06:09 48.31026 -0.15145 35043 ft 434 kts 233°
2026-05-07 06:10 48.27327 -0.22330 35053 ft 434 kts 233°
2026-05-07 06:10 48.23687 -0.29485 35050 ft 434 kts 233°
2026-05-07 06:11 48.20017 -0.36696 35043 ft 434 kts 233°
2026-05-07 06:11 48.16329 -0.43893 35046 ft 434 kts 233°
2026-05-07 06:12 48.12662 -0.51032 35045 ft 434 kts 233°
2026-05-07 06:12 48.08974 -0.58209 35051 ft 434 kts 233°
2026-05-07 06:13 48.05306 -0.65326 35046 ft 434 kts 233°
2026-05-07 06:13 48.01611 -0.72472 35043 ft 434 kts 233°
2026-05-07 06:14 47.97914 -0.79617 35036 ft 434 kts 233°
2026-05-07 06:14 47.94227 -0.86707 35040 ft 434 kts 233°
2026-05-07 06:15 47.90514 -0.93824 35030 ft 434 kts 233°
2026-05-07 06:15 47.86800 -1.00922 35030 ft 433 kts 233°
2026-05-07 06:16 47.83108 -1.07980 35025 ft 433 kts 233°
2026-05-07 06:16 47.79403 -1.15045 35014 ft 433 kts 233°
2026-05-07 06:17 47.76312 -1.20923 35000 ft 435 kts 233°
2026-05-07 06:17 47.72566 -1.28026 35009 ft 436 kts 232°
2026-05-07 06:18 47.68806 -1.35132 35002 ft 438 kts 232°
2026-05-07 06:18 47.65033 -1.42238 34998 ft 438 kts 232°
2026-05-07 06:19 47.61256 -1.49333 35004 ft 439 kts 232°
2026-05-07 06:19 47.57375 -1.56313 34996 ft 439 kts 229°
2026-05-07 06:20 47.53277 -1.62983 34997 ft 440 kts 228°
2026-05-07 06:20 47.49126 -1.69621 35008 ft 440 kts 228°
2026-05-07 06:21 47.45011 -1.76314 35013 ft 440 kts 229°
2026-05-07 06:21 47.40916 -1.83040 35008 ft 440 kts 229°
2026-05-07 06:22 47.36821 -1.89743 35012 ft 440 kts 229°
2026-05-07 06:22 47.30563 -1.99645 35025 ft 440 kts 226°
2026-05-07 06:23 47.26281 -2.06084 35030 ft 440 kts 226°
2026-05-07 06:23 47.21990 -2.12516 35034 ft 440 kts 226°
2026-05-07 06:24 47.17722 -2.18965 35033 ft 440 kts 226°
2026-05-07 06:24 47.13481 -2.25389 35023 ft 439 kts 226°
2026-05-07 06:25 47.09224 -2.31820 35012 ft 439 kts 226°
2026-05-07 06:25 47.04946 -2.38249 35011 ft 439 kts 226°
2026-05-07 06:26 47.00705 -2.44616 35011 ft 439 kts 226°
2026-05-07 06:26 46.96426 -2.51027 35016 ft 439 kts 226°
2026-05-07 06:27 46.92140 -2.57418 35013 ft 439 kts 226°
2026-05-07 06:27 46.87879 -2.63756 35017 ft 439 kts 226°
2026-05-07 06:28 46.83594 -2.70108 35018 ft 439 kts 226°
2026-05-07 06:28 46.79299 -2.76467 35019 ft 439 kts 226°
2026-05-07 06:29 46.75013 -2.82808 35024 ft 438 kts 226°
2026-05-07 06:29 46.70751 -2.89104 35021 ft 439 kts 226°
2026-05-07 06:30 46.66457 -2.95432 35022 ft 439 kts 226°
2026-05-07 06:30 46.62147 -3.01762 35022 ft 439 kts 225°
2026-05-07 06:31 46.57860 -3.08026 35021 ft 439 kts 225°
2026-05-07 06:31 46.53558 -3.14378 35021 ft 439 kts 226°
2026-05-07 06:32 46.49354 -3.20757 35016 ft 439 kts 227°
2026-05-07 06:32 46.45124 -3.27180 35025 ft 439 kts 226°
2026-05-07 06:33 46.40902 -3.33516 35023 ft 438 kts 226°
2026-05-07 06:33 46.36653 -3.39870 35027 ft 438 kts 226°
2026-05-07 06:34 46.32398 -3.46228 35027 ft 438 kts 226°
2026-05-07 06:34 46.28169 -3.52527 35021 ft 438 kts 226°
2026-05-07 06:35 46.23905 -3.58850 35028 ft 438 kts 226°
2026-05-07 06:35 46.19669 -3.65125 35028 ft 438 kts 226°
2026-05-07 06:36 46.15430 -3.71396 35028 ft 437 kts 226°
2026-05-07 06:36 46.11172 -3.77687 35032 ft 437 kts 226°
2026-05-07 06:37 46.06901 -3.83979 35026 ft 437 kts 225°
2026-05-07 06:37 46.02670 -3.90187 35029 ft 437 kts 225°
2026-05-07 06:38 45.98387 -3.96448 35036 ft 437 kts 225°
2026-05-07 06:38 45.94124 -4.02684 35032 ft 437 kts 225°
2026-05-07 06:39 45.89882 -4.08882 35028 ft 436 kts 225°
2026-05-07 06:39 45.85628 -4.15064 35026 ft 436 kts 225°
2026-05-07 06:40 45.81355 -4.21271 35028 ft 436 kts 225°
2026-05-07 06:40 45.77118 -4.27413 35028 ft 435 kts 225°
2026-05-07 06:41 45.72849 -4.33596 35028 ft 435 kts 225°
2026-05-07 06:41 45.68565 -4.39759 35018 ft 435 kts 225°
2026-05-07 06:42 45.64319 -4.45855 35028 ft 435 kts 225°
2026-05-07 06:42 45.60057 -4.51960 35022 ft 435 kts 225°
2026-05-07 06:43 45.55786 -4.58066 35026 ft 434 kts 225°
2026-05-07 06:43 45.51508 -4.64192 35016 ft 434 kts 225°
2026-05-07 06:44 45.47261 -4.70270 35020 ft 434 kts 225°
2026-05-07 06:44 45.42970 -4.76369 35013 ft 434 kts 225°
2026-05-07 06:45 45.38701 -4.82403 35018 ft 434 kts 225°
2026-05-07 06:45 45.34421 -4.88469 35009 ft 434 kts 225°
2026-05-07 06:46 45.30155 -4.94502 35011 ft 434 kts 225°
2026-05-07 06:46 45.25856 -5.00554 35003 ft 434 kts 224°
2026-05-07 06:47 45.21544 -5.06606 35003 ft 434 kts 224°
2026-05-07 06:47 45.17271 -5.12590 35004 ft 434 kts 224°
2026-05-07 06:48 45.12961 -5.18629 35005 ft 435 kts 224°
2026-05-07 06:48 45.08677 -5.24631 34997 ft 435 kts 224°
2026-05-07 06:49 45.04359 -5.30653 34993 ft 435 kts 224°
2026-05-07 06:49 45.00037 -5.36648 34995 ft 435 kts 224°
2026-05-07 06:50 44.95729 -5.42617 34996 ft 436 kts 224°
2026-05-07 06:50 44.91414 -5.48603 34993 ft 436 kts 224°
2026-05-07 06:51 44.87075 -5.54604 34989 ft 436 kts 224°
2026-05-07 06:51 44.82722 -5.60602 34986 ft 436 kts 224°
2026-05-07 06:52 44.78393 -5.66554 34995 ft 436 kts 224°
2026-05-07 06:52 44.74027 -5.72538 35007 ft 437 kts 224°
2026-05-07 06:53 44.69679 -5.78482 34995 ft 437 kts 224°
2026-05-07 06:53 44.65320 -5.84389 34995 ft 437 kts 222°
2026-05-07 06:54 44.60703 -5.90021 34988 ft 437 kts 219°
2026-05-07 06:54 44.55998 -5.95391 34988 ft 437 kts 219°
2026-05-07 06:55 44.51307 -6.00778 34991 ft 437 kts 219°
2026-05-07 06:55 44.46620 -6.06263 34989 ft 437 kts 220°
2026-05-07 06:56 44.41974 -6.11718 34981 ft 437 kts 220°
2026-05-07 06:56 44.37288 -6.17188 34985 ft 438 kts 219°
2026-05-07 06:57 44.32616 -6.22609 34977 ft 438 kts 219°
2026-05-07 06:57 44.27917 -6.28056 34974 ft 438 kts 219°
2026-05-07 06:58 44.23248 -6.33458 34970 ft 438 kts 219°
2026-05-07 06:58 44.18553 -6.38890 34966 ft 438 kts 219°
2026-05-07 06:59 44.13876 -6.44288 34966 ft 437 kts 219°
2026-05-07 06:59 44.09194 -6.49676 34963 ft 438 kts 220°
2026-05-07 07:00 44.04476 -6.55089 34957 ft 438 kts 220°
2026-05-07 07:00 43.99785 -6.60461 34941 ft 439 kts 220°
2026-05-07 07:01 43.95091 -6.65830 34939 ft 439 kts 220°
2026-05-07 07:01 43.91155 -6.70321 34937 ft 440 kts 220°
2026-05-07 07:02 43.86409 -6.75721 34940 ft 440 kts 219°
2026-05-07 07:02 43.81660 -6.81116 34938 ft 440 kts 219°
2026-05-07 07:03 43.76938 -6.86471 34929 ft 441 kts 220°
2026-05-07 07:03 43.72192 -6.91840 34926 ft 442 kts 220°
2026-05-07 07:04 43.67405 -6.97240 34932 ft 443 kts 220°
2026-05-07 07:04 43.62651 -7.02584 34937 ft 443 kts 220°
2026-05-07 07:05 43.57858 -7.07978 34930 ft 444 kts 220°
2026-05-07 07:05 43.53090 -7.13334 34933 ft 444 kts 220°
2026-05-07 07:06 43.48269 -7.18722 34936 ft 444 kts 220°
2026-05-07 07:06 43.43481 -7.24065 34929 ft 445 kts 220°
2026-05-07 07:07 43.38685 -7.29426 34919 ft 446 kts 220°
2026-05-07 07:07 43.33848 -7.34806 34918 ft 447 kts 220°
2026-05-07 07:08 43.29015 -7.40164 34923 ft 448 kts 220°
2026-05-07 07:08 43.24151 -7.45556 34926 ft 449 kts 220°
2026-05-07 07:09 43.19306 -7.50913 34928 ft 449 kts 220°
2026-05-07 07:09 43.14426 -7.56302 34923 ft 449 kts 220°
2026-05-07 07:10 43.09569 -7.61647 34921 ft 450 kts 221°
2026-05-07 07:10 43.04658 -7.67028 34919 ft 452 kts 221°
2026-05-07 07:11 42.99755 -7.72394 34919 ft 453 kts 221°
2026-05-07 07:11 42.94825 -7.77795 34919 ft 454 kts 221°
2026-05-07 07:12 42.89913 -7.83170 34926 ft 455 kts 221°
2026-05-07 07:12 42.84963 -7.88568 34927 ft 455 kts 221°
2026-05-07 07:13 42.80000 -7.93954 34928 ft 455 kts 221°
2026-05-07 07:13 42.75027 -7.99334 34928 ft 455 kts 221°
2026-05-07 07:14 42.70084 -8.04687 34923 ft 456 kts 221°
2026-05-07 07:14 42.65099 -8.10073 34926 ft 457 kts 221°
2026-05-07 07:15 42.60137 -8.15430 34928 ft 457 kts 221°
2026-05-07 07:15 42.55163 -8.20784 34927 ft 457 kts 221°
2026-05-07 07:16 42.50167 -8.26134 34927 ft 457 kts 221°
2026-05-07 07:16 42.45182 -8.31471 34926 ft 457 kts 221°
2026-05-07 07:17 42.40173 -8.36820 34904 ft 458 kts 222°
2026-05-07 07:17 42.35164 -8.42158 34905 ft 459 kts 222°
2026-05-07 07:18 42.30161 -8.47486 34903 ft 459 kts 222°
2026-05-07 07:18 42.25153 -8.52812 34901 ft 460 kts 222°
2026-05-07 07:19 42.20104 -8.58169 34905 ft 460 kts 222°
2026-05-07 07:19 42.15076 -8.63478 34903 ft 460 kts 221°
2026-05-07 07:20 42.10016 -8.68820 34903 ft 461 kts 221°
2026-05-07 07:20 42.04987 -8.74117 34883 ft 461 kts 223°
2026-05-07 07:21 41.99938 -8.79427 34899 ft 460 kts 223°
2026-05-07 07:21 41.94872 -8.84749 34904 ft 460 kts 223°
2026-05-07 07:22 41.89830 -8.90024 34911 ft 460 kts 222°
2026-05-07 07:22 41.84754 -8.95244 34908 ft 461 kts 221°
2026-05-07 07:23 41.79579 -9.00337 34914 ft 462 kts 221°
2026-05-07 07:23 41.74369 -9.05393 34918 ft 461 kts 221°
2026-05-07 07:24 41.69199 -9.10439 34903 ft 461 kts 221°
2026-05-07 07:24 41.64035 -9.15497 34911 ft 461 kts 221°
2026-05-07 07:25 41.56247 -9.23104 34905 ft 461 kts 221°
2026-05-07 07:26 41.51069 -9.28139 34912 ft 461 kts 221°
2026-05-07 07:26 41.45914 -9.33145 34913 ft 461 kts 221°
2026-05-07 07:27 41.40724 -9.38178 34909 ft 461 kts 221°
2026-05-07 07:27 41.35519 -9.43215 34909 ft 462 kts 221°
2026-05-07 07:28 41.30338 -9.48220 34890 ft 462 kts 222°
2026-05-07 07:28 41.25128 -9.53239 34910 ft 461 kts 222°
2026-05-07 07:29 41.19939 -9.58220 34930 ft 461 kts 222°
2026-05-07 07:29 41.14736 -9.63217 34914 ft 461 kts 223°
2026-05-07 07:30 41.09552 -9.68189 34931 ft 461 kts 223°
2026-05-07 07:30 41.04373 -9.73139 34937 ft 460 kts 223°
2026-05-07 07:31 40.99153 -9.78112 34943 ft 460 kts 222°
2026-05-07 07:31 40.93972 -9.83037 34944 ft 460 kts 222°
2026-05-07 07:32 40.88776 -9.87970 34941 ft 458 kts 223°
2026-05-07 07:32 40.83603 -9.92892 34961 ft 457 kts 223°
2026-05-07 07:33 40.78454 -9.97777 34969 ft 456 kts 223°
2026-05-07 07:33 40.73308 -10.02640 34969 ft 456 kts 223°
2026-05-07 07:34 40.68139 -10.07504 34951 ft 455 kts 223°
2026-05-07 07:34 40.62978 -10.12364 34956 ft 454 kts 223°
2026-05-07 07:35 40.57870 -10.17169 34963 ft 453 kts 223°
2026-05-07 07:35 40.52711 -10.21995 34954 ft 453 kts 223°
2026-05-07 07:36 40.47593 -10.26774 34962 ft 452 kts 223°
2026-05-07 07:36 40.42467 -10.31559 34964 ft 451 kts 223°
2026-05-07 07:37 40.37384 -10.36298 34973 ft 450 kts 223°
2026-05-07 07:37 40.32270 -10.41059 34974 ft 450 kts 223°
2026-05-07 07:38 40.27189 -10.45779 34975 ft 449 kts 223°
2026-05-07 07:38 40.22063 -10.50520 34973 ft 449 kts 223°
2026-05-07 07:39 40.16982 -10.55214 34967 ft 449 kts 223°
2026-05-07 07:39 40.11878 -10.59926 34963 ft 448 kts 223°
2026-05-07 07:40 40.06781 -10.64636 34979 ft 447 kts 223°
2026-05-07 07:40 40.01716 -10.69297 34981 ft 447 kts 223°
2026-05-07 07:41 39.96656 -10.73939 34962 ft 446 kts 223°
2026-05-07 07:41 39.91556 -10.78606 34972 ft 446 kts 223°
2026-05-07 07:42 39.86497 -10.83227 34976 ft 445 kts 223°
2026-05-07 07:42 39.81425 -10.87872 34981 ft 445 kts 223°
2026-05-07 07:43 39.76370 -10.92487 34981 ft 445 kts 223°
2026-05-07 07:43 39.71316 -10.97080 34956 ft 443 kts 222°
2026-05-07 07:44 39.66242 -11.01671 34974 ft 442 kts 222°
2026-05-07 07:44 39.61214 -11.06226 34971 ft 442 kts 222°
2026-05-07 07:45 39.56164 -11.10796 34981 ft 441 kts 222°
2026-05-07 07:45 39.51149 -11.15325 34982 ft 441 kts 222°
2026-05-07 07:46 39.46089 -11.19889 34973 ft 440 kts 222°
2026-05-07 07:46 39.41075 -11.24409 34981 ft 440 kts 222°
2026-05-07 07:47 39.36054 -11.28912 34980 ft 440 kts 222°
2026-05-07 07:47 39.31019 -11.33431 34978 ft 440 kts 222°
2026-05-07 07:48 39.26009 -11.37913 34995 ft 439 kts 222°
2026-05-07 07:48 39.21831 -11.41646 34985 ft 438 kts 222°
2026-05-07 07:49 39.16848 -11.46095 34991 ft 437 kts 222°
2026-05-07 07:49 39.11841 -11.50557 34994 ft 436 kts 222°
2026-05-07 07:50 39.06868 -11.54977 34996 ft 436 kts 222°
2026-05-07 07:50 39.01863 -11.59421 34997 ft 436 kts 222°
2026-05-07 07:51 38.96880 -11.63830 34978 ft 435 kts 222°
2026-05-07 07:51 38.91887 -11.68244 34988 ft 435 kts 222°
2026-05-07 07:52 38.86919 -11.72636 34995 ft 434 kts 222°
2026-05-07 07:52 38.81947 -11.77031 34995 ft 434 kts 222°
2026-05-07 07:53 38.76977 -11.81397 34995 ft 434 kts 222°
2026-05-07 07:53 38.71984 -11.85777 34978 ft 433 kts 222°
2026-05-07 07:54 38.67036 -11.90121 34982 ft 433 kts 222°
2026-05-07 07:54 38.62057 -11.94481 34986 ft 433 kts 222°
2026-05-07 07:55 38.57078 -11.98826 34989 ft 433 kts 222°
2026-05-07 07:55 38.52089 -12.03180 34989 ft 433 kts 222°
2026-05-07 07:56 38.47130 -12.07496 34988 ft 431 kts 221°
2026-05-07 07:56 38.42190 -12.11782 35007 ft 430 kts 221°
2026-05-07 07:57 38.37244 -12.16080 35002 ft 429 kts 221°
2026-05-07 07:57 38.32335 -12.20337 35001 ft 428 kts 221°
2026-05-07 07:58 38.27398 -12.24600 35004 ft 428 kts 221°
2026-05-07 07:58 38.22458 -12.28856 34984 ft 427 kts 221°
2026-05-07 07:59 38.17563 -12.33081 34991 ft 427 kts 221°
2026-05-07 07:59 38.12651 -12.37314 34997 ft 426 kts 221°
2026-05-07 08:00 38.07731 -12.41543 35001 ft 426 kts 221°
2026-05-07 08:00 38.02841 -12.45730 35010 ft 425 kts 221°
2026-05-07 08:01 37.97924 -12.49936 34991 ft 423 kts 221°
2026-05-07 08:01 37.93073 -12.54096 35005 ft 422 kts 221°
2026-05-07 08:02 37.88217 -12.58251 35009 ft 421 kts 221°
2026-05-07 08:02 37.83343 -12.62393 35008 ft 421 kts 220°
2026-05-07 08:03 37.78502 -12.66502 35009 ft 420 kts 221°
2026-05-07 08:03 37.73637 -12.70638 35006 ft 420 kts 221°
2026-05-07 08:04 37.68819 -12.74733 35003 ft 420 kts 221°
2026-05-07 08:04 37.63960 -12.78851 35003 ft 419 kts 220°
2026-05-07 08:05 37.59107 -12.82953 35008 ft 418 kts 220°
2026-05-07 08:05 37.54294 -12.87012 35010 ft 418 kts 220°
2026-05-07 08:06 37.49467 -12.91088 35012 ft 417 kts 220°
2026-05-07 08:06 37.44654 -12.95136 34990 ft 417 kts 220°
2026-05-07 08:07 37.39810 -12.99209 34993 ft 417 kts 220°
2026-05-07 08:07 37.35001 -13.03239 34996 ft 416 kts 220°
2026-05-07 08:08 37.30189 -13.07272 35000 ft 416 kts 220°
2026-05-07 08:08 37.25387 -13.11293 35000 ft 416 kts 220°
2026-05-07 08:09 37.20566 -13.15313 34969 ft 416 kts 220°
2026-05-07 08:09 37.15723 -13.19346 34981 ft 416 kts 220°
2026-05-07 08:10 37.10914 -13.23342 34988 ft 417 kts 220°
2026-05-07 08:10 37.06070 -13.27372 34994 ft 417 kts 220°
2026-05-07 08:11 37.01243 -13.31380 34999 ft 417 kts 220°
2026-05-07 08:11 36.96410 -13.35377 35000 ft 417 kts 220°
2026-05-07 08:12 36.91558 -13.39400 34990 ft 417 kts 220°
2026-05-07 08:12 36.86736 -13.43390 34995 ft 417 kts 220°
2026-05-07 08:13 36.81906 -13.47369 35001 ft 417 kts 220°
2026-05-07 08:13 36.77044 -13.51362 35002 ft 417 kts 219°
2026-05-07 08:14 36.72223 -13.55327 35011 ft 416 kts 220°
2026-05-07 08:14 36.67383 -13.59308 34991 ft 416 kts 220°
2026-05-07 08:15 36.62564 -13.63257 34997 ft 416 kts 219°
2026-05-07 08:15 36.57734 -13.67201 35009 ft 416 kts 219°
2026-05-07 08:16 36.52910 -13.71138 35013 ft 416 kts 219°
2026-05-07 08:16 36.48055 -13.75099 35014 ft 416 kts 219°
2026-05-07 08:17 36.43203 -13.79050 35013 ft 416 kts 219°
2026-05-07 08:17 36.38394 -13.82976 35000 ft 416 kts 219°
2026-05-07 08:18 36.33531 -13.86924 35006 ft 416 kts 219°
2026-05-07 08:18 36.28701 -13.90830 35019 ft 416 kts 219°
2026-05-07 08:19 36.23847 -13.94760 35025 ft 415 kts 219°
2026-05-07 08:19 36.19038 -13.98657 35027 ft 415 kts 219°
2026-05-07 08:20 36.14187 -14.02576 35012 ft 415 kts 219°
2026-05-07 08:20 36.09383 -14.06448 35020 ft 414 kts 219°
2026-05-07 08:21 36.04542 -14.10348 35023 ft 414 kts 219°
2026-05-07 08:21 35.99697 -14.14228 35031 ft 414 kts 219°
2026-05-07 08:22 35.94885 -14.18082 35031 ft 414 kts 219°
2026-05-07 08:22 35.90039 -14.21966 35031 ft 414 kts 219°
2026-05-07 08:23 35.85221 -14.25821 35008 ft 413 kts 219°
2026-05-07 08:23 35.80423 -14.29658 35020 ft 413 kts 219°
2026-05-07 08:24 35.75590 -14.33512 35022 ft 413 kts 219°
2026-05-07 08:24 35.70794 -14.37336 35035 ft 413 kts 219°
2026-05-07 08:25 35.65971 -14.41187 35036 ft 412 kts 219°
2026-05-07 08:25 35.61142 -14.45023 35016 ft 413 kts 219°
2026-05-07 08:26 35.53903 -14.50751 35029 ft 413 kts 219°
2026-05-07 08:26 35.49067 -14.54568 35032 ft 413 kts 219°
2026-05-07 08:27 35.44250 -14.58377 35040 ft 413 kts 219°
2026-05-07 08:27 35.39421 -14.62193 35048 ft 412 kts 219°
2026-05-07 08:28 35.34627 -14.65964 35021 ft 412 kts 219°
2026-05-07 08:28 35.29791 -14.69773 35018 ft 412 kts 219°
2026-05-07 08:29 35.24963 -14.73576 35023 ft 413 kts 219°
2026-05-07 08:29 35.20144 -14.77353 35028 ft 413 kts 219°
2026-05-07 08:30 35.15281 -14.81156 35036 ft 413 kts 219°
2026-05-07 08:30 35.10468 -14.84928 35040 ft 413 kts 219°
2026-05-07 08:31 35.05615 -14.88719 35041 ft 413 kts 219°
2026-05-07 08:31 35.00771 -14.92493 35043 ft 413 kts 219°
2026-05-07 08:32 34.95956 -14.96243 35053 ft 412 kts 219°
2026-05-07 08:32 34.91136 -15.00000 35054 ft 412 kts 219°
2026-05-07 08:33 34.86292 -15.03762 35055 ft 411 kts 219°
2026-05-07 08:33 34.81460 -15.07506 35055 ft 411 kts 219°
2026-05-07 08:34 34.76640 -15.11233 35028 ft 412 kts 219°
2026-05-07 08:34 34.71788 -15.14994 35030 ft 412 kts 219°
2026-05-07 08:35 34.66958 -15.18722 35033 ft 413 kts 219°
2026-05-07 08:35 34.62910 -15.21844 35040 ft 413 kts 219°
2026-05-07 08:36 34.57263 -15.26195 35048 ft 413 kts 219°
2026-05-07 08:36 34.53224 -15.29309 35051 ft 413 kts 219°
2026-05-07 08:37 34.48356 -15.33050 35030 ft 414 kts 218°
2026-05-07 08:37 34.43469 -15.36788 35038 ft 415 kts 218°
2026-05-07 08:38 34.38610 -15.40507 35044 ft 415 kts 218°
2026-05-07 08:38 34.33711 -15.44256 35048 ft 415 kts 218°
2026-05-07 08:39 34.31269 -15.46122 34932 ft 413 kts 218°
2026-05-07 08:39 34.28834 -15.47980 34214 ft 413 kts 218°
2026-05-07 08:39 34.26424 -15.49818 33307 ft 416 kts 218°
2026-05-07 08:39 34.23962 -15.51695 32297 ft 419 kts 218°
2026-05-07 08:40 34.21480 -15.53594 31301 ft 423 kts 218°
2026-05-07 08:40 34.18988 -15.55505 30326 ft 426 kts 218°
2026-05-07 08:40 34.16502 -15.57405 29423 ft 426 kts 217°
2026-05-07 08:40 34.13999 -15.59303 28686 ft 421 kts 217°
2026-05-07 08:41 34.11516 -15.61180 27956 ft 417 kts 217°
2026-05-07 08:41 34.09101 -15.63009 27262 ft 413 kts 217°
2026-05-07 08:41 34.06677 -15.64847 26596 ft 409 kts 217°
2026-05-07 08:41 34.04271 -15.66669 25998 ft 405 kts 217°
2026-05-07 08:42 34.01918 -15.68447 25772 ft 391 kts 217°
2026-05-07 08:42 33.99648 -15.70161 25480 ft 381 kts 217°
2026-05-07 08:42 33.97436 -15.71837 25026 ft 376 kts 217°
2026-05-07 08:42 33.95230 -15.73510 24495 ft 373 kts 217°
2026-05-07 08:43 33.93029 -15.75177 23983 ft 371 kts 217°
2026-05-07 08:43 33.90866 -15.76816 23484 ft 369 kts 216°
2026-05-07 08:43 33.88687 -15.78466 22929 ft 367 kts 216°
2026-05-07 08:43 33.86548 -15.80083 22424 ft 364 kts 216°
2026-05-07 08:44 33.84412 -15.81698 21920 ft 361 kts 216°
2026-05-07 08:44 33.82284 -15.83303 21429 ft 359 kts 216°
2026-05-07 08:44 33.80178 -15.84888 20957 ft 356 kts 216°
2026-05-07 08:44 33.78078 -15.86466 20482 ft 354 kts 216°
2026-05-07 08:45 33.75994 -15.88033 20015 ft 351 kts 216°
2026-05-07 08:45 33.73952 -15.89568 19570 ft 349 kts 216°
2026-05-07 08:45 33.71891 -15.91114 19108 ft 347 kts 216°
2026-05-07 08:45 33.69842 -15.92654 18665 ft 345 kts 215°
2026-05-07 08:46 33.67836 -15.94162 18182 ft 343 kts 216°
2026-05-07 08:46 33.65818 -15.95679 17676 ft 341 kts 216°
2026-05-07 08:46 33.63813 -15.97205 17196 ft 339 kts 216°
2026-05-07 08:46 33.61824 -15.98735 16726 ft 337 kts 216°
2026-05-07 08:47 33.59881 -16.00234 16270 ft 335 kts 216°
2026-05-07 08:47 33.57924 -16.01741 15830 ft 333 kts 216°
2026-05-07 08:47 33.55975 -16.03237 15400 ft 331 kts 216°
2026-05-07 08:47 33.54041 -16.04718 14968 ft 329 kts 216°
2026-05-07 08:48 33.52116 -16.06190 14559 ft 327 kts 216°
2026-05-07 08:48 33.50201 -16.07653 14158 ft 325 kts 216°
2026-05-07 08:48 33.48329 -16.09084 13725 ft 323 kts 216°
2026-05-07 08:48 33.46438 -16.10531 13233 ft 321 kts 216°
2026-05-07 08:49 33.44545 -16.11979 12745 ft 320 kts 216°
2026-05-07 08:49 33.42686 -16.13401 12256 ft 320 kts 216°
2026-05-07 08:49 33.40804 -16.14835 11757 ft 319 kts 216°
2026-05-07 08:49 33.38927 -16.16268 11247 ft 319 kts 216°
2026-05-07 08:50 33.37049 -16.17701 10745 ft 319 kts 216°
2026-05-07 08:50 33.35197 -16.19115 10270 ft 319 kts 215°
2026-05-07 08:50 33.33331 -16.20539 9942 ft 313 kts 215°
2026-05-07 08:50 33.31520 -16.21916 9811 ft 301 kts 215°
2026-05-07 08:51 33.29803 -16.23217 9677 ft 290 kts 215°
2026-05-07 08:51 33.28115 -16.24497 9403 ft 284 kts 215°
2026-05-07 08:51 33.26452 -16.25762 9035 ft 282 kts 215°
2026-05-07 08:51 33.24803 -16.27018 8653 ft 280 kts 215°
2026-05-07 08:52 33.23163 -16.28269 8267 ft 278 kts 215°
2026-05-07 08:52 33.21532 -16.29510 7874 ft 277 kts 215°
2026-05-07 08:52 33.19908 -16.30743 7486 ft 275 kts 214°
2026-05-07 08:52 33.18309 -16.31953 7098 ft 274 kts 214°
2026-05-07 08:53 33.16695 -16.33173 6715 ft 272 kts 214°
2026-05-07 08:53 33.15096 -16.34382 6325 ft 271 kts 214°
2026-05-07 08:53 33.13510 -16.35580 5935 ft 268 kts 214°
2026-05-07 08:53 33.11938 -16.36769 5525 ft 266 kts 214°
2026-05-07 08:54 33.10396 -16.37937 5140 ft 264 kts 214°
2026-05-07 08:54 33.08843 -16.39114 5068 ft 265 kts 214°
2026-05-07 08:54 33.07281 -16.40299 4994 ft 266 kts 214°
2026-05-07 08:54 33.05716 -16.41484 4864 ft 266 kts 214°
2026-05-07 08:55 33.04173 -16.42648 4748 ft 265 kts 214°
2026-05-07 08:55 33.02605 -16.43830 4623 ft 265 kts 214°
2026-05-07 08:55 33.01044 -16.45007 4487 ft 265 kts 214°
2026-05-07 08:55 32.99486 -16.46180 4358 ft 264 kts 214°
2026-05-07 08:56 32.97955 -16.47334 4231 ft 264 kts 214°
2026-05-07 08:56 32.96401 -16.48504 4100 ft 264 kts 214°
2026-05-07 08:56 32.94843 -16.49680 3972 ft 264 kts 214°
2026-05-07 08:56 32.93291 -16.50854 3997 ft 264 kts 215°
2026-05-07 08:57 32.91884 -16.52210 3945 ft 263 kts 224°
2026-05-07 08:57 32.90524 -16.53665 3820 ft 262 kts 224°
2026-05-07 08:57 32.89160 -16.55122 3687 ft 261 kts 224°
2026-05-07 08:57 32.87841 -16.56530 3555 ft 248 kts 224°
2026-05-07 08:58 32.86579 -16.57876 3431 ft 242 kts 224°
2026-05-07 08:58 32.85320 -16.59193 3302 ft 241 kts 219°
2026-05-07 08:58 32.83956 -16.60334 3180 ft 242 kts 217°
2026-05-07 08:58 32.82565 -16.61481 3074 ft 241 kts 217°
2026-05-07 08:59 32.81188 -16.62621 2996 ft 241 kts 217°
2026-05-07 08:59 32.79812 -16.63763 2950 ft 240 kts 216°
2026-05-07 08:59 32.78455 -16.64890 3014 ft 241 kts 216°
2026-05-07 08:59 32.77077 -16.66033 3015 ft 241 kts 217°
2026-05-07 09:00 32.75725 -16.67150 2973 ft 234 kts 216°
2026-05-07 09:00 32.74395 -16.68206 2965 ft 231 kts 215°
2026-05-07 09:00 32.73085 -16.69240 2884 ft 220 kts 216°
2026-05-07 09:00 32.71843 -16.70222 2745 ft 207 kts 215°
2026-05-07 09:01 32.70687 -16.71164 2389 ft 195 kts 215°
2026-05-07 09:01 32.69594 -16.72070 1849 ft 186 kts 215°
2026-05-07 09:01 32.68573 -16.72924 1325 ft 179 kts 215°
2026-05-07 09:01 32.67561 -16.73774 937 ft 178 kts 216°
2026-05-07 09:02 32.66553 -16.74605 910 ft 176 kts 215°
2026-05-07 09:02 32.65575 -16.75414 901 ft 163 kts 215°
2026-05-07 09:02 32.64680 -16.76184 886 ft 155 kts 220°
2026-05-07 09:02 32.64102 -16.77192 905 ft 151 kts 257°
2026-05-07 09:03 32.64281 -16.78403 803 ft 152 kts 301°
2026-05-07 09:03 32.64973 -16.79288 784 ft 145 kts 320°
2026-05-07 09:03 32.65805 -16.79954 872 ft 146 kts 333°
2026-05-07 09:03 32.66794 -16.80175 834 ft 148 kts
2026-05-07 09:04 32.67761 -16.79785 524 ft 146 kts 30°
2026-05-07 09:04 32.68487 -16.78948 331 ft 145 kts 45°
2026-05-07 09:04 32.69215 -16.78148 202 ft 142 kts 44°
2026-05-07 09:04 32.69850 -16.77389 188 ft 107 kts 43°
2026-05-07 09:05 32.70217 -16.76972 188 ft 50 kts 46°
2026-05-07 09:05 32.70380 -16.76825 191 ft 18 kts 28°
2026-05-07 09:05 32.70378 -16.76723 192 ft 13 kts 158°
2026-05-07 09:05 32.70314 -16.76820 192 ft 24 kts 256°
2026-05-07 09:06 32.70170 -16.76990 188 ft 31 kts 223°
2026-05-07 09:06 32.70022 -16.77163 191 ft 26 kts 214°
2026-05-07 09:06 32.69842 -16.77181 183 ft 25 kts 202°
2026-05-07 09:06 32.69761 -16.77283 176 ft 12 kts 228°
2026-05-07 09:07 32.69700 -16.77350 170 ft 10 kts 225°
2026-05-07 09:07 32.69651 -16.77408 169 ft 9 kts 225°
2026-05-07 09:07 32.69608 -16.77461 169 ft 8 kts 225°
2026-05-07 09:07 32.69570 -16.77507 169 ft 7 kts 227°
2026-05-07 09:08 32.69538 -16.77548 169 ft 6 kts 227°
2026-05-07 09:08 32.69510 -16.77583 169 ft 5 kts 227°
2026-05-07 09:08 32.69487 -16.77612 169 ft 5 kts 226°
2026-05-07 09:08 32.69467 -16.77637 169 ft 4 kts 227°
2026-05-07 09:09 32.69451 -16.77657 169 ft 3 kts 227°
2026-05-07 09:09 32.69434 -16.77678 169 ft 6 kts 226°
2026-05-07 09:09 32.69408 -16.77707 169 ft 4 kts 206°
2026-05-07 09:09 32.69388 -16.77695 169 ft 3 kts 126°
2026-05-07 09:10 32.69378 -16.77681 169 ft 2 kts 131°
2026-05-07 09:10 32.69370 -16.77672 169 ft 1 kts 135°
2026-05-07 09:10 32.69364 -16.77666 169 ft 4 kts 140°
2026-05-07 09:10 32.69357 -16.77659 169 ft 0 kts 140°
2026-05-07 09:11 32.69356 -16.77658 169 ft 0 kts 140°